FENGYUN 1C DEB, 30730

Orbit data source: Space-Track

FENGYUN 1C DEB, 30730 is space debris in SSO originally from a launch on Mon, 10 May 1999 UTC launched from the Taiyaun Space Center, China (TSC). Fengyun 1C debris stems from the Chinese weather satellite Fengyun-1C, which was intentionally destroyed by a Chinese anti-satellite missile in 2007. This event dramatically increased the amount of space debris, with thousands of trackable fragments posing hazards to satellites and human spaceflight. The Fengyun 1C debris cloud has become a focal point in discussions about space sustainability and the need for international regulations to prevent the creation of new debris.

Loading next visibility...
Identifier
30730, 1999-025ASQ
Orbit
SSO
Country
Flag of CNCN / PRC
Related business
Manufacturer
Unknown
Mission
Spacecraft
Bus & Motor
Unknown
Mass
Unknown
Launch date (UTC)
1999-05-10 (27 years ago)
Launch vehicle
Unknown
Launch site
Taiyaun Space Center, China (TSC)
Object type
Payload
Rocket body
Debris
Shape & HBR
Unknown shape, 0.1 m
Radar Cross Section
Medium (>0.1 m² and <1 m²)

Expand to show TLE details & history
Last TLE update: 2 days ago

TLE from 2 days ago
0 FENGYUN 1C DEB
1 30730U 99025ASQ 26262.04847553  .00001058  00000-0  44325-3 0  9997
2 30730  98.5953 301.2427 0075420 311.2615  77.6965 14.26549617  9914
Epoch: 2026-09-19T01:09Z
TLE epoch observation values (Epoch: 2026-09-19T01:09:48.285Z)
Latitude
29.48593°
Longitude
-79.04794°
Altitude
795.812 km
Speed
7.464 km/s
True Right ascension
19h 45m 27s
True Declination
29° 20' 23"
Sunlit
Object was in daylight at epoch
Visualization orbit readout
Latitude
Unknown
Longitude
Unknown
Altitude
Unknown
Speed
Unknown
Apparent Right ascension
Unknown
Apparent Declination
Unknown
Sunlit
N/A
Visualization observer readout
Local Sidereal Time
06:57:49
Azimuth
Unknown
Elevation
Unknown
Doppler factor
Unknown
Orbital elements
Apogee altitude
854.572 km
Perigee altitude
746.291 km
Semi-major axis
7,178.568 km
Eccentricity
0.00754
Inclination
98.5953°
RAAN
301.2427°
Arg. of periapsis
311.2615°
True anomaly
78.54257°
Mean anomaly
77.6965°
Eccentric anomaly
78.11937°
Mean motion
3.56851 °/min
Orbital period
100.88 mins
BSTAR
0.00044325
Loading maneuver chart data...
Computing Atmospheric mass density...

Documentation

Showing up to 5 results
|